Location: Biltmore Gardens
(41.6070°N, 83.4666°W)
Time: 13:35:08
(UTC+00:00)

Cosmos 1959 Rocket - Pass Details

Date: 14 July 2020
Orbit: 948 x 996 km, 82.9° (Epoch: 05 August)

Event Time Altitude Azimuth Distance (km) Brightness Sun altitude
Exits shadow 04:04:05 48° 156° (SSE) 1,239 4.6 -23.0°
Maximum altitude 04:05:46 68° 93° (E) 1,034 4.4 -23.1°
Drops below altitude 10° 04:11:57 10° 12° (NNE) 2,729 7.6 -23.6°
Sets 04:14:30 0° 11° (N) 3,688 8.4 -23.8°
